Modesto, CA

2:36 AM PDT on April 29, 2017 (GMT -0700)
Modesto City-County-Sham

Weather History for KMOD - February, 2014

Change the Weather History Date:

Thursday, February 27, 2014

  Actual Average Record
Temperature  
Mean Temperature 59 °F -  
Max Temperature 68 °F 66 °F 80 °F (1992)
Min Temperature 50 °F 45 °F 26 °F (1962)
Degree Days  
Heating Degree Days 6 10  
Month to date heating degree days 283 327  
Since 1 July heating degree days 1691 1759  
Cooling Degree Days 0 0  
Month to date cooling degree days 0 0  
Year to date cooling degree days 0 0  
Growing Degree Days 9 (Base 50)    
Moisture  
Dew Point 47 °F    
Average Humidity 68    
Maximum Humidity 93    
Minimum Humidity 42    
Precipitation  
Precipitation 0.02 in 0.08 in 0.58 in (1991)
Month to date precipitation 1.44 2.30  
Year to date precipitation 1.94 4.91  
Since 1 July precipitation 3.43  
Snow  
Snow 0.00 in - - ()
Month to date snowfall 0.0  
Since 1 July snowfall 0.0  
Snow Depth -    
Sea Level Pressure  
Sea Level Pressure 29.82 in    
Wind  
Wind Speed 8 mph (SE)    
Max Wind Speed 15 mph    
Max Gust Speed 22 mph    
Visibility 10 miles    
Events Rain    
T = Trace of Precipitation, MM = Missing Value Source: NWS Daily Summary

Daily Weather History Graph

Daily Weather History Graph

Search for Another Location

Airport or City:

Trip Planner

Search our weather history database for the weather conditions in past years. The results will help you decide how hot, cold, wet, or windy it might be!

Date:

Astronomy

Feb. 27, 2014 Rise Set
Actual Time 6:37 AM PST 5:55 PM PST
Civil Twilight 6:11 AM PST 6:22 PM PST
Nautical Twilight 5:41 AM PST 6:52 PM PST
Astronomical Twilight 5:10 AM PST 7:22 PM PST
Moon 5:12 AM PST (2/27) 4:28 PM PST (2/27)
Length of Visible Light 12h 10m
Length of Day
11h 17m
Waning Crescent, 3% of the Moon is Illuminated
Feb 27
Waning Crescent
Mar 1
New
Mar 8
First Quarter
Mar 16
Full
Mar 23
Last Quarter

Hourly Weather History & Observations

Time (PST) Temp. Dew Point Humidity Pressure Visibility Wind Dir Wind Speed Gust Speed Precip Events Conditions
12:53 AM 55.9 °F 53.1 °F 90% 29.78 in 10.0 mi South 9.2 mph - N/A   Partly Cloudy
1:53 AM 55.9 °F 51.1 °F 84% 29.82 in 10.0 mi South 5.8 mph - N/A   Scattered Clouds
2:53 AM 55.9 °F 48.9 °F 77% 29.84 in 8.0 mi South 6.9 mph - 0.02 in Rain Light Rain
3:53 AM 53.1 °F 48.0 °F 83% 29.84 in 10.0 mi SSE 6.9 mph - 0.00 in   Mostly Cloudy
4:53 AM 53.1 °F 46.9 °F 80% 29.85 in 10.0 mi SSE 6.9 mph - N/A   Partly Cloudy
5:53 AM 52.0 °F 48.0 °F 86% 29.88 in 10.0 mi ESE 6.9 mph - N/A   Partly Cloudy
6:53 AM 52.0 °F 48.0 °F 86% 29.90 in 10.0 mi SE 6.9 mph - N/A   Scattered Clouds
7:53 AM 55.0 °F 48.0 °F 77% 29.92 in 10.0 mi SSE 9.2 mph - N/A   Overcast
8:53 AM 57.0 °F 48.9 °F 74% 29.92 in 10.0 mi SSE 9.2 mph 17.3 mph N/A   Overcast
9:53 AM 60.1 °F 50.0 °F 69% 29.93 in 10.0 mi SSE 10.4 mph 17.3 mph N/A   Mostly Cloudy
10:53 AM 62.1 °F 46.9 °F 58% 29.93 in 10.0 mi SSE 12.7 mph 17.3 mph N/A   Mostly Cloudy
11:53 AM 63.0 °F 45.0 °F 52% 29.93 in 10.0 mi South 9.2 mph - N/A   Mostly Cloudy
12:53 PM 64.0 °F 44.1 °F 48% 29.93 in 10.0 mi SSE 13.8 mph - N/A   Mostly Cloudy
1:53 PM 66.0 °F 45.0 °F 47% 29.90 in 10.0 mi SE 6.9 mph - N/A   Scattered Clouds
2:53 PM 66.9 °F 42.1 °F 40% 29.87 in 10.0 mi ESE 11.5 mph - N/A   Clear
3:53 PM 66.0 °F 43.0 °F 43% 29.85 in 10.0 mi SE 10.4 mph 20.7 mph N/A   Partly Cloudy
4:53 PM 64.9 °F 44.1 °F 47% 29.81 in 10.0 mi SE 12.7 mph - N/A   Clear
5:53 PM 62.1 °F 46.0 °F 56% 29.76 in 10.0 mi ESE 9.2 mph - N/A   Clear
6:53 PM 60.1 °F 46.0 °F 60% 29.73 in 10.0 mi SE 5.8 mph - N/A   Clear
7:53 PM 57.9 °F 46.0 °F 65% 29.70 in 10.0 mi SE 3.5 mph - N/A   Clear
8:53 PM 54.0 °F 46.9 °F 77% 29.67 in 10.0 mi ESE 6.9 mph - N/A   Clear
9:53 PM 55.0 °F 46.0 °F 72% 29.65 in 10.0 mi ESE 9.2 mph - N/A   Clear
10:53 PM 57.0 °F 46.0 °F 67% 29.64 in 10.0 mi ESE 10.4 mph - N/A   Scattered Clouds
11:53 PM 57.0 °F 46.0 °F 67% 29.60 in 10.0 mi SE 8.1 mph - N/A   Partly Cloudy